Location: Vinland
(47.7731°N, 122.6974°W)
Time: 15:33:36
(UTC+00:00)

Envisat - Visible Passes

Search period start: 30 January 2023 00:00
Search period end: 09 February 2023 00:00
Orbit: 763 x 765 km, 98.2° (Epoch: 30 January)

Date Brightness Start Highest point End Pass type
(mag) Time Alt. Az. Time Alt. Az. Time Alt. Az.
30 Jan 5.7 11:35:33 10° NNE 11:36:23 14° NE 11:36:23 14° NE visible
30 Jan 4.5 13:14:26 10° N 13:16:34 23° NNW 13:16:34 23° NNW visible
31 Jan 4.6 12:37:09 10° NNE 12:39:14 25° N 12:39:14 25° N visible
31 Jan 4.8 14:18:03 10° NNW 14:19:25 13° NW 14:19:25 13° NW visible
01 Feb 5.1 12:00:12 10° NNE 12:01:53 21° NNE 12:01:53 21° NNE visible
01 Feb 4.5 13:39:48 10° N 13:42:05 20° NNW 13:42:05 20° NNW visible
02 Feb 5.7 11:23:43 10° NE 11:24:33 14° NE 11:24:33 14° NE visible
02 Feb 4.3 13:02:15 10° N 13:04:44 27° N 13:04:44 27° N visible
03 Feb 4.5 12:25:04 10° NNE 12:27:24 28° NNE 12:27:24 28° NNE visible
03 Feb 4.6 14:05:27 10° NNW 14:07:36 16° NW 14:07:36 16° NW visible
04 Feb 5.2 11:48:15 10° NNE 11:50:05 21° NE 11:50:05 21° NE visible
04 Feb 4.2 13:27:30 10° N 13:30:16 25° NNW 13:30:16 25° NNW visible
05 Feb 5.8 11:11:59 10° NE 11:12:45 13° NE 11:12:45 13° NE visible
05 Feb 4.1 12:50:05 10° N 12:52:56 33° N 12:52:56 33° N visible
05 Feb 4.9 14:32:10 10° NW 14:33:05 10° NW 14:33:08 10° NW visible
06 Feb 4.5 12:13:00 10° NNE 12:15:36 30° NNE 12:15:36 30° NNE visible
06 Feb 4.4 13:52:59 10° NNW 13:55:48 19° NW 13:55:48 19° NW visible
07 Feb 5.2 11:36:19 10° NNE 11:38:17 21° NE 11:38:17 21° NE visible
07 Feb 3.9 13:15:15 10° N 13:18:28 31° NNW 13:18:28 31° NNW visible
08 Feb 5.9 11:00:25 10° NE 11:00:57 12° ENE 11:00:57 12° ENE visible
08 Feb 3.9 12:37:57 10° N 12:41:09 39° N 12:41:09 39° N visible
08 Feb 4.7 14:18:57 10° NNW 14:21:11 13° NW 14:21:20 13° NW visible
